This demonstration page uses our WeatherBlox Daily Observations layout. Learn more.

Left ArrowRight Arrow

38.83388, -104.82136

Hourly Observations for August 25, 2022

Temp ( °F °C ) Dew Point ( °F °C ) Humidity (%) Winds ( mph kmh ) Pressure ( in mb ) Visibility ( mi km ) Precip ( " mm )
12:58 am 00:58 Clear 65 18.4 41 4.9 41 41 SSE 3 6 29.55 1001 10 16 0.00 0.00
1:58 am 01:58 Clear 62 16.6 42 5.8 49 49 NW 5 7 29.52 1000 10 16 0.00 0.00
2:58 am 02:58 Clear 64 17.5 40 4.4 42 42 NW 5 7 29.57 1001 10 16 0.00 0.00
3:58 am 03:58 Clear 62 16.7 40 4.4 44 44 Calm 29.51 999 10 16 0.00 0.00
4:58 am 04:58 Clear 62 16.5 39 3.9 43 43 Calm 29.52 1000 10 16 0.00 0.00
5:58 am 05:58 Clear 61 16.2 37 2.6 40 40 WNW 3 6 29.55 1001 10 16 0.00 0.00
6:58 am 06:58 Sunny 63 17.1 40 4.4 43 43 Calm 29.60 1003 10 16 0.00 0.00
7:58 am 07:58 Sunny 66 18.9 43 6 43 43 Calm 29.73 1007 10 16 0.00 0.00
8:58 am 08:58 Sunny 70 20.9 44 6.8 40 40 ESE 5 7 29.82 1010 10 16 0.00 0.00
9:56 am 09:56 Sunny 71 21.5 46 7.7 41 41 ESE 3 6 29.87 1011 10 16 0.00 0.00
10:56 am 10:56 Sunny 73 22.5 45 7.1 37 37 SE 10 17 29.83 1010 10 16 0.00 0.00
11:56 am 11:56 Sunny 75 23.9 45 7.1 34 34 SSE 14 22 29.88 1012 10 16 0.00 0.00
12:55 pm 12:55 Sunny 77 25 44 6.7 31 31 SSE 10 17 29.92 1013 10 16 0.00 0.00
1:55 pm 13:55 Sunny 78 25.6 43 6.2 29 29 SE 13 20 29.91 1013 9 14 0.00 0.00
2:55 pm 14:55 Sunny 79 26.1 42 5.6 27 27 SSE 12 19 29.89 1012 9 14 0.00 0.00
3:55 pm 15:55 Mostly Cloudy 76 24.2 39 4 27 27 SSE 10 17 29.71 1006 10 16 0.00 0.00
4:55 pm 16:55 Mostly Cloudy 75 23.9 40 4.3 28 28 S 3 6 29.68 1005 10 16 0.00 0.00
5:55 pm 17:55 Mostly Cloudy 74 23.6 42 5.5 31 31 NW 6 9 29.69 1005 10 16 0.00 0.00
6:55 pm 18:55 Cloudy 73 22.9 42 5.3 32 32 WNW 7 11 29.63 1003 10 16 0.00 0.00
7:55 pm 19:55 Mostly Cloudy 70 21.3 41 4.8 34 34 WNW 7 11 29.57 1001 10 16 0.00 0.00
8:55 pm 20:55 Mostly Clear 69 20.8 41 5.2 36 36 NW 10 17 29.58 1002 10 16 0.00 0.00
9:55 pm 21:55 Clear 68 20.2 40 4.6 36 36 NNW 8 13 29.69 1005 10 16 0.00 0.00
10:55 pm 22:55 Mostly Cloudy 68 19.9 41 4.8 37 37 WNW 8 13 29.69 1005 10 16 0.00 0.00
11:55 pm 23:55 Cloudy 68 20.1 42 5.3 38 38 WNW 5 7 29.70 1006 10 16 0.00 0.00

Powered by AerisWeather